CZ-3A DEB, 40155

Orbit data source: Space-Track

CZ-3A DEB, 40155 is space debris in HEO originally from a launch on Fri, 02 Feb 2007 UTC launched from the Xichang Space Center, China (XSC). Debris objects in space refer to the collection of defunct objects orbiting the Earth. Examples of debris include non-operational satellites, rocket bodies, and fragments generated from explosions, collisions, or faulty payload assembly.

Loading next visibility...
Identifier
40155, 2007-003AP
Orbit
HEO
Last TLE update
11 months ago
Origin
Manufacturer
Unknown
Mission
Spacecraft
Bus & Motor
Unknown
Mass
Unknown
Launch date (UTC)
2007-02-02 (18 years ago)
Launch vehicle
Unknown
Launch site
Xichang Space Center, China (XSC)
Object type
Payload
Rocket body
Debris
Shape & HBR
Unknown
Radar Cross Section
Small (<0.1 m²)

Expand to show TLE details & history

TLE from 11 months ago
0 CZ-3A DEB
1 40155U 07003AP  24212.22462285  .00007906  00000-0  59304-1 0  9991
2 40155  23.5266 252.5152 7376837 242.7746  26.6133  2.04681030 23174
Epoch: 2024-07-30T05:23Z
TLE epoch observation values (Epoch: 2024-07-30T05:23:27.414Z)
Latitude
Longitude
-136.61616°
Altitude
11,663.419 km
Speed
5.383 km/s
True Right ascension
16h 50m 22s
True Declination
0° 00' 00"
Sunlit
Object was in daylight at epoch
Visualization orbit readout
Latitude
-21.60579°
Longitude
38.02°
Altitude
23,891.649 km
Speed
3.295 km/s
Apparent Right ascension
04h 44m 15s
Apparent Declination
-24° 59' 49"
Sunlit
Object is in daylight
Visualization observer readout
Local Sidereal Time
18:14:37
Azimuth
58.565° ENE
Elevation
-65.916°
Doppler factor
1
Orbital elements
Apogee altitude
39,161.545 km
Perigee altitude
496.417 km
Semi-major axis
26,207.118 km
Eccentricity
0.73768
Inclination
23.5266°
RAAN
252.5152°
Arg. of periapsis
242.7746°
True anomaly
Unknown
Mean anomaly
26.6133°
Eccentric anomaly
Unknown
Mean motion
0.51158 °/min
Orbital period
703.7 mins
BSTAR
0.059304
Loading maneuver chart data...
Loading SW <> Apogee altitude chart data...
Loading historical data...
Loading historical data...
Loading historical data...
Loading historical data...
Loading historical data...
Loading historical data...
Loading historical data...

CZ-3A DEB Visibility forecast

Observer location: undefined°, undefined°

Span
Click to sort rows by Start time (UTC) header in descending order
Start Az.
Max El. time (UTC)
Max El. Az.
Max El.
End time (UTC)
End Az.
641 mins2025-07-01 08:53:48.256Z235.073° WSW2025-07-01 09:11:48.256Z182.037° SSW26.672°2025-07-01 19:34:48.256Z162.274° S
|